contact:dominique.lefevre@mio.osupytheas.fr, maurice.libes@osupytheas.fr, didier.mallarino@osupytheas.fr
Project:EMSO http://www.emso-fr.org/EMSO-France
Depth: 2436.0 m
Title:EMSO Ligure Ouest : Data MII capteur MICROCAT
DateTime_Computer,Latitude,Longitude,Temperature,Conductivity,Pressure,DateTime_Instrument
DateTime_Computer,Latitude,Longitude,degC,S m-1,dbar,DateTime_Instrument
2022-06-05T00:01:14Z,42.805,6.029,13.3001,4.60036,2470.763,2022-6-05T02:02:57Z
2022-06-05T00:04:17Z,42.805,6.029,13.3000,4.60042,2470.787,2022-6-05T02:06:00Z
2022-06-05T00:07:21Z,42.805,6.029,13.2998,4.60040,2470.763,2022-6-05T02:09:03Z
2022-06-05T00:10:24Z,42.805,6.029,13.2999,4.60036,2470.777,2022-6-05T02:12:06Z
2022-06-05T00:13:27Z,42.805,6.029,13.3001,4.60036,2470.74,2022-6-05T02:15:09Z
2022-06-05T00:16:30Z,42.805,6.029,13.3002,4.60036,2470.763,2022-6-05T02:18:12Z
2022-06-05T00:19:33Z,42.805,6.029,13.3002,4.60036,2470.763,2022-6-05T02:21:16Z
2022-06-05T00:22:36Z,42.805,6.029,13.3004,4.60039,2470.754,2022-6-05T02:24:19Z
2022-06-05T00:25:39Z,42.805,6.029,13.3005,4.60037,2470.763,2022-6-05T02:27:22Z
2022-06-05T00:28:42Z,42.805,6.029,13.3003,4.60039,2470.74,2022-6-05T02:30:25Z
2022-06-05T00:31:46Z,42.805,6.029,13.3000,4.60036,2470.777,2022-6-05T02:33:28Z
2022-06-05T00:34:49Z,42.805,6.029,13.3001,4.60037,2470.717,2022-6-05T02:36:31Z
2022-06-05T00:37:52Z,42.805,6.029,13.3004,4.60037,2470.777,2022-6-05T02:39:34Z
2022-06-05T00:40:55Z,42.805,6.029,13.3007,4.60046,2470.763,2022-6-05T02:42:37Z
2022-06-05T00:43:58Z,42.805,6.029,13.3001,4.60039,2470.74,2022-6-05T02:45:41Z
2022-06-05T00:47:01Z,42.805,6.029,13.3003,4.60039,2470.8,2022-6-05T02:48:44Z
2022-06-05T00:50:04Z,42.805,6.029,13.3003,4.60039,2470.763,2022-6-05T02:51:47Z
2022-06-05T00:53:07Z,42.805,6.029,13.3008,4.60041,2470.74,2022-6-05T02:54:50Z
2022-06-05T00:56:10Z,42.805,6.029,13.3000,4.60037,2470.763,2022-6-05T02:57:53Z
2022-06-05T00:59:14Z,42.805,6.029,13.2999,4.60037,2470.754,2022-6-05T03:00:56Z
2022-06-05T01:02:17Z,42.805,6.029,13.3004,4.60043,2470.763,2022-6-05T03:03:59Z
2022-06-05T01:05:20Z,42.805,6.029,13.3026,4.60037,2470.763,2022-6-05T03:07:02Z
2022-06-05T01:08:23Z,42.805,6.029,13.3021,4.60063,2470.717,2022-6-05T03:10:05Z
2022-06-05T01:11:26Z,42.805,6.029,13.3039,4.60055,2470.763,2022-6-05T03:13:09Z
2022-06-05T01:14:29Z,42.805,6.029,13.3051,4.60056,2470.717,2022-6-05T03:16:12Z
2022-06-05T01:17:32Z,42.805,6.029,13.3018,4.60069,2470.754,2022-6-05T03:19:15Z
2022-06-05T01:20:35Z,42.805,6.029,13.3026,4.60059,2470.717,2022-6-05T03:22:18Z
2022-06-05T01:23:39Z,42.805,6.029,13.3004,4.60046,2470.717,2022-6-05T03:25:21Z
2022-06-05T01:26:42Z,42.805,6.029,13.3029,4.60092,2470.763,2022-6-05T03:28:24Z
2022-06-05T01:29:45Z,42.805,6.029,13.3041,4.60114,2470.754,2022-6-05T03:31:27Z
2022-06-05T01:32:48Z,42.805,6.029,13.3036,4.60084,2470.754,2022-6-05T03:34:30Z
2022-06-05T01:35:51Z,42.805,6.029,13.3036,4.60077,2470.74,2022-6-05T03:37:34Z
2022-06-05T01:38:54Z,42.805,6.029,13.3036,4.60115,2470.73,2022-6-05T03:40:37Z
2022-06-05T01:41:57Z,42.805,6.029,13.3039,4.60146,2470.754,2022-6-05T03:43:40Z
2022-06-05T01:45:00Z,42.805,6.029,13.3044,4.60121,2470.717,2022-6-05T03:46:43Z
2022-06-05T01:48:03Z,42.805,6.029,13.3043,4.60122,2470.74,2022-6-05T03:49:46Z
2022-06-05T01:51:07Z,42.805,6.029,13.3034,4.60106,2470.777,2022-6-05T03:52:49Z
2022-06-05T01:54:10Z,42.805,6.029,13.3043,4.60131,2470.74,2022-6-05T03:55:52Z
2022-06-05T01:57:13Z,42.805,6.029,13.3037,4.60113,2470.717,2022-6-05T03:58:55Z
2022-06-05T02:00:16Z,42.805,6.029,13.3025,4.60119,2470.717,2022-6-05T04:01:59Z
2022-06-05T02:03:19Z,42.805,6.029,13.3025,4.60122,2470.73,2022-6-05T04:05:02Z
2022-06-05T02:06:22Z,42.805,6.029,13.3026,4.60125,2470.754,2022-6-05T04:08:05Z
2022-06-05T02:09:25Z,42.805,6.029,13.3039,4.60110,2470.707,2022-6-05T04:11:08Z
2022-06-05T02:12:28Z,42.805,6.029,13.3026,4.60123,2470.656,2022-6-05T04:14:11Z
2022-06-05T02:15:32Z,42.805,6.029,13.3035,4.60141,2470.693,2022-6-05T04:17:14Z
2022-06-05T02:18:35Z,42.805,6.029,13.3024,4.60099,2470.707,2022-6-05T04:20:17Z
2022-06-05T02:21:38Z,42.805,6.029,13.3029,4.60105,2470.717,2022-6-05T04:23:20Z
2022-06-05T02:24:41Z,42.805,6.029,13.3036,4.60112,2470.693,2022-6-05T04:26:23Z
2022-06-05T02:27:44Z,42.805,6.029,13.3045,4.60103,2470.717,2022-6-05T04:29:27Z
2022-06-05T02:30:47Z,42.805,6.029,13.3020,4.60127,2470.707,2022-6-05T04:32:30Z
2022-06-05T02:33:50Z,42.805,6.029,13.3021,4.60100,2470.717,2022-6-05T04:35:33Z
2022-06-05T02:36:53Z,42.805,6.029,13.3037,4.60097,2470.703,2022-6-05T04:38:36Z
2022-06-05T02:39:56Z,42.805,6.029,13.3021,4.60125,2470.74,2022-6-05T04:41:39Z
2022-06-05T02:43:00Z,42.805,6.029,13.3037,4.60153,2470.73,2022-6-05T04:44:42Z
2022-06-05T02:46:03Z,42.805,6.029,13.3022,4.60109,2470.684,2022-6-05T04:47:45Z
2022-06-05T02:49:06Z,42.805,6.029,13.3029,4.60125,2470.73,2022-6-05T04:50:48Z
2022-06-05T02:52:09Z,42.805,6.029,13.3034,4.60132,2470.707,2022-6-05T04:53:51Z
2022-06-05T02:55:12Z,42.805,6.029,13.3031,4.60115,2470.693,2022-6-05T04:56:55Z
2022-06-05T02:58:15Z,42.805,6.029,13.3035,4.60157,2470.693,2022-6-05T04:59:58Z
2022-06-05T03:01:18Z,42.805,6.029,13.3039,4.60150,2470.707,2022-6-05T05:03:01Z
2022-06-05T03:04:21Z,42.805,6.029,13.3034,4.60136,2470.693,2022-6-05T05:06:04Z
2022-06-05T03:07:24Z,42.805,6.029,13.3035,4.60092,2470.684,2022-6-05T05:09:07Z
2022-06-05T03:10:28Z,42.805,6.029,13.3022,4.60117,2470.684,2022-6-05T05:12:10Z
2022-06-05T03:13:31Z,42.805,6.029,13.3024,4.60099,2470.717,2022-6-05T05:15:13Z
2022-06-05T03:16:34Z,42.805,6.029,13.3032,4.60099,2470.67,2022-6-05T05:18:16Z
2022-06-05T03:19:37Z,42.805,6.029,13.3021,4.60105,2470.656,2022-6-05T05:21:20Z
2022-06-05T03:22:40Z,42.805,6.029,13.3043,4.60091,2470.707,2022-6-05T05:24:23Z
2022-06-05T03:25:43Z,42.805,6.029,13.3045,4.60117,2470.693,2022-6-05T05:27:26Z
2022-06-05T03:28:46Z,42.805,6.029,13.3023,4.60123,2470.684,2022-6-05T05:30:29Z
2022-06-05T03:31:49Z,42.805,6.029,13.3024,4.60131,2470.684,2022-6-05T05:33:32Z
2022-06-05T03:34:53Z,42.805,6.029,13.3014,4.60122,2470.717,2022-6-05T05:36:35Z
2022-06-05T03:37:56Z,42.805,6.029,13.3019,4.60097,2470.707,2022-6-05T05:39:38Z
2022-06-05T03:40:59Z,42.805,6.029,13.3016,4.60090,2470.646,2022-6-05T05:42:41Z
2022-06-05T03:44:02Z,42.805,6.029,13.3021,4.60081,2470.684,2022-6-05T05:45:44Z
2022-06-05T03:47:05Z,42.805,6.029,13.3017,4.60107,2470.67,2022-6-05T05:48:48Z
2022-06-05T03:50:08Z,42.805,6.029,13.3021,4.60117,2470.67,2022-6-05T05:51:51Z
2022-06-05T03:53:11Z,42.805,6.029,13.3026,4.60116,2470.693,2022-6-05T05:54:54Z
2022-06-05T03:56:14Z,42.805,6.029,13.3025,4.60126,2470.67,2022-6-05T05:57:57Z
2022-06-05T03:59:17Z,42.805,6.029,13.3024,4.60126,2470.67,2022-6-05T06:01:00Z
2022-06-05T04:02:21Z,42.805,6.029,13.3029,4.60125,2470.67,2022-6-05T06:04:03Z
2022-06-05T04:05:24Z,42.805,6.029,13.3029,4.60103,2470.67,2022-6-05T06:07:06Z
2022-06-05T04:08:27Z,42.805,6.029,13.3036,4.60101,2470.646,2022-6-05T06:10:09Z
2022-06-05T04:11:30Z,42.805,6.029,13.3043,4.60132,2470.646,2022-6-05T06:13:12Z
2022-06-05T04:14:33Z,42.805,6.029,13.3033,4.60117,2470.67,2022-6-05T06:16:16Z
2022-06-05T04:17:36Z,42.805,6.029,13.3051,4.60119,2470.67,2022-6-05T06:19:19Z
2022-06-05T04:20:39Z,42.805,6.029,13.3026,4.60123,2470.684,2022-6-05T06:22:22Z
2022-06-05T04:23:42Z,42.805,6.029,13.3024,4.60125,2470.661,2022-6-05T06:25:25Z
2022-06-05T04:26:46Z,42.805,6.029,13.3023,4.60102,2470.661,2022-6-05T06:28:28Z
2022-06-05T04:29:49Z,42.805,6.029,13.3027,4.60105,2470.67,2022-6-05T06:31:31Z
2022-06-05T04:32:52Z,42.805,6.029,13.3036,4.60095,2470.67,2022-6-05T06:34:34Z
2022-06-05T04:35:55Z,42.805,6.029,13.3015,4.60087,2470.661,2022-6-05T06:37:37Z
2022-06-05T04:38:58Z,42.805,6.029,13.3017,4.60084,2470.707,2022-6-05T06:40:41Z
2022-06-05T04:42:01Z,42.805,6.029,13.3019,4.60107,2470.67,2022-6-05T06:43:44Z
2022-06-05T04:45:04Z,42.805,6.029,13.3018,4.60056,2470.684,2022-6-05T06:46:47Z
2022-06-05T04:48:07Z,42.805,6.029,13.3014,4.60089,2470.661,2022-6-05T06:49:50Z
2022-06-05T04:51:10Z,42.805,6.029,13.3015,4.60081,2470.661,2022-6-05T06:52:53Z
2022-06-05T04:54:14Z,42.805,6.029,13.3017,4.60102,2470.624,2022-6-05T06:55:56Z
2022-06-05T04:57:17Z,42.805,6.029,13.3023,4.60098,2470.67,2022-6-05T06:58:59Z
2022-06-05T05:00:20Z,42.805,6.029,13.3024,4.60112,2470.637,2022-6-05T07:02:02Z
2022-06-05T05:03:23Z,42.805,6.029,13.3028,4.60106,2470.67,2022-6-05T07:05:06Z
2022-06-05T05:06:26Z,42.805,6.029,13.3039,4.60104,2470.661,2022-6-05T07:08:09Z
2022-06-05T05:09:29Z,42.805,6.029,13.3047,4.60099,2470.661,2022-6-05T07:11:12Z
2022-06-05T05:12:32Z,42.805,6.029,13.3029,4.60119,2470.646,2022-6-05T07:14:15Z
2022-06-05T05:15:35Z,42.805,6.029,13.3045,4.60097,2470.67,2022-6-05T07:17:18Z
2022-06-05T05:18:38Z,42.805,6.029,13.3036,4.60135,2470.646,2022-6-05T07:20:21Z
2022-06-05T05:21:42Z,42.805,6.029,13.3038,4.60121,2470.661,2022-6-05T07:23:24Z
2022-06-05T05:24:45Z,42.805,6.029,13.3047,4.60120,2470.624,2022-6-05T07:26:27Z
2022-06-05T05:27:48Z,42.805,6.029,13.3034,4.60087,2470.684,2022-6-05T07:29:30Z
2022-06-05T05:30:51Z,42.805,6.029,13.3030,4.60121,2470.637,2022-6-05T07:32:34Z
2022-06-05T05:33:54Z,42.805,6.029,13.3037,4.60103,2470.67,2022-6-05T07:35:37Z
2022-06-05T05:36:57Z,42.805,6.029,13.3050,4.60105,2470.646,2022-6-05T07:38:40Z
2022-06-05T05:40:00Z,42.805,6.029,13.3045,4.60085,2470.684,2022-6-05T07:41:43Z
2022-06-05T05:43:03Z,42.805,6.029,13.3048,4.60127,2470.67,2022-6-05T07:44:46Z
2022-06-05T05:46:07Z,42.805,6.029,13.3046,4.60120,2470.646,2022-6-05T07:47:49Z
2022-06-05T05:49:10Z,42.805,6.029,13.3058,4.60094,2470.646,2022-6-05T07:50:52Z
2022-06-05T05:52:13Z,42.805,6.029,13.3050,4.60091,2470.661,2022-6-05T07:53:55Z
2022-06-05T05:55:16Z,42.805,6.029,13.3058,4.60102,2470.661,2022-6-05T07:56:58Z
2022-06-05T05:58:19Z,42.805,6.029,13.3066,4.60097,2470.646,2022-6-05T08:00:02Z
2022-06-05T06:01:22Z,42.805,6.029,13.3054,4.60122,2470.624,2022-6-05T08:03:05Z
2022-06-05T06:04:25Z,42.805,6.029,13.3069,4.60114,2470.646,2022-6-05T08:06:08Z
2022-06-05T06:07:28Z,42.805,6.029,13.3063,4.60127,2470.646,2022-6-05T08:09:11Z
2022-06-05T06:10:31Z,42.805,6.029,13.3063,4.60140,2470.637,2022-6-05T08:12:14Z
2022-06-05T06:13:35Z,42.805,6.029,13.3049,4.60162,2470.637,2022-6-05T08:15:17Z
2022-06-05T06:16:38Z,42.805,6.029,13.3075,4.60135,2470.646,2022-6-05T08:18:20Z
2022-06-05T06:19:41Z,42.805,6.029,13.3080,4.60126,2470.646,2022-6-05T08:21:23Z
2022-06-05T06:22:44Z,42.805,6.029,13.3066,4.60110,2470.646,2022-6-05T08:24:27Z
2022-06-05T06:25:47Z,42.805,6.029,13.3082,4.60157,2470.6,2022-6-05T08:27:30Z
2022-06-05T06:28:50Z,42.805,6.029,13.3044,4.60193,2470.624,2022-6-05T08:30:33Z
2022-06-05T06:31:53Z,42.805,6.029,13.3059,4.60112,2470.661,2022-6-05T08:33:36Z
2022-06-05T06:34:56Z,42.805,6.029,13.3051,4.60140,2470.661,2022-6-05T08:36:39Z
2022-06-05T06:38:00Z,42.805,6.029,13.3071,4.60080,2470.661,2022-6-05T08:39:42Z
2022-06-05T06:41:03Z,42.805,6.029,13.3088,4.60084,2470.646,2022-6-05T08:42:45Z
2022-06-05T06:44:06Z,42.805,6.029,13.3061,4.60095,2470.684,2022-6-05T08:45:48Z
2022-06-05T06:47:09Z,42.805,6.029,13.3049,4.60064,2470.637,2022-6-05T08:48:51Z
2022-06-05T06:50:12Z,42.805,6.029,13.3039,4.60097,2470.624,2022-6-05T08:51:55Z
2022-06-05T06:53:15Z,42.805,6.029,13.3048,4.60056,2470.646,2022-6-05T08:54:58Z
2022-06-05T06:56:18Z,42.805,6.029,13.3042,4.60097,2470.614,2022-6-05T08:58:01Z
2022-06-05T06:59:21Z,42.805,6.029,13.3045,4.60086,2470.637,2022-6-05T09:01:04Z
2022-06-05T07:02:24Z,42.805,6.029,13.3061,4.60128,2470.637,2022-6-05T09:04:07Z
2022-06-05T07:05:28Z,42.805,6.029,13.3056,4.60079,2470.646,2022-6-05T09:07:10Z
2022-06-05T07:08:31Z,42.805,6.029,13.3045,4.60098,2470.646,2022-6-05T09:10:13Z
2022-06-05T07:11:34Z,42.805,6.029,13.3046,4.60116,2470.646,2022-6-05T09:13:16Z
2022-06-05T07:14:37Z,42.805,6.029,13.3069,4.60084,2470.661,2022-6-05T09:16:19Z
2022-06-05T07:17:40Z,42.805,6.029,13.3040,4.60076,2470.661,2022-6-05T09:19:23Z
2022-06-05T07:20:43Z,42.805,6.029,13.3048,4.60152,2470.646,2022-6-05T09:22:26Z
2022-06-05T07:23:46Z,42.805,6.029,13.3064,4.60098,2470.637,2022-6-05T09:25:29Z
2022-06-05T07:26:49Z,42.805,6.029,13.3061,4.60094,2470.67,2022-6-05T09:28:32Z
2022-06-05T07:29:52Z,42.805,6.029,13.3052,4.60070,2470.624,2022-6-05T09:31:35Z
2022-06-05T07:32:56Z,42.805,6.029,13.3041,4.60089,2470.661,2022-6-05T09:34:38Z
2022-06-05T07:35:59Z,42.805,6.029,13.3029,4.60107,2470.661,2022-6-05T09:37:41Z
2022-06-05T07:39:02Z,42.805,6.029,13.3041,4.60099,2470.661,2022-6-05T09:40:44Z
2022-06-05T07:42:05Z,42.805,6.029,13.3061,4.60086,2470.684,2022-6-05T09:43:48Z
2022-06-05T07:45:08Z,42.805,6.029,13.3032,4.60095,2470.684,2022-6-05T09:46:51Z
2022-06-05T07:48:11Z,42.805,6.029,13.3043,4.60079,2470.661,2022-6-05T09:49:54Z
2022-06-05T07:51:14Z,42.805,6.029,13.3064,4.60077,2470.684,2022-6-05T09:52:57Z
2022-06-05T07:54:17Z,42.805,6.029,13.3056,4.60069,2470.67,2022-6-05T09:56:00Z
2022-06-05T07:57:21Z,42.805,6.029,13.3057,4.60095,2470.637,2022-6-05T09:59:03Z
2022-06-05T08:00:24Z,42.805,6.029,13.3039,4.60071,2470.684,2022-6-05T10:02:06Z
2022-06-05T08:03:27Z,42.805,6.029,13.3050,4.60079,2470.684,2022-6-05T10:05:09Z
2022-06-05T08:06:30Z,42.805,6.029,13.3026,4.60089,2470.684,2022-6-05T10:08:12Z
2022-06-05T08:09:33Z,42.805,6.029,13.3037,4.60078,2470.646,2022-6-05T10:11:16Z
2022-06-05T08:12:36Z,42.805,6.029,13.3022,4.60102,2470.661,2022-6-05T10:14:19Z
2022-06-05T08:15:39Z,42.805,6.029,13.3033,4.60073,2470.646,2022-6-05T10:17:22Z
2022-06-05T08:18:42Z,42.805,6.029,13.3060,4.60075,2470.67,2022-6-05T10:20:25Z
2022-06-05T08:21:45Z,42.805,6.029,13.3050,4.60066,2470.684,2022-6-05T10:23:28Z
2022-06-05T08:24:49Z,42.805,6.029,13.3051,4.60084,2470.684,2022-6-05T10:26:31Z
2022-06-05T08:27:52Z,42.805,6.029,13.3073,4.60098,2470.67,2022-6-05T10:29:34Z
2022-06-05T08:30:55Z,42.805,6.029,13.3058,4.60069,2470.684,2022-6-05T10:32:37Z
2022-06-05T08:33:58Z,42.805,6.029,13.3046,4.60092,2470.67,2022-6-05T10:35:41Z
2022-06-05T08:37:01Z,42.805,6.029,13.3056,4.60075,2470.67,2022-6-05T10:38:44Z
2022-06-05T08:40:04Z,42.805,6.029,13.3063,4.60062,2470.684,2022-6-05T10:41:47Z
2022-06-05T08:43:07Z,42.805,6.029,13.3037,4.60074,2470.67,2022-6-05T10:44:50Z
2022-06-05T08:46:10Z,42.805,6.029,13.3034,4.60058,2470.67,2022-6-05T10:47:53Z
2022-06-05T08:49:14Z,42.805,6.029,13.3069,4.60063,2470.717,2022-6-05T10:50:56Z
2022-06-05T08:52:17Z,42.805,6.029,13.3062,4.60069,2470.67,2022-6-05T10:53:59Z
2022-06-05T08:55:20Z,42.805,6.029,13.3054,4.60070,2470.693,2022-6-05T10:57:02Z
2022-06-05T08:58:23Z,42.805,6.029,13.3045,4.60111,2470.67,2022-6-05T11:00:06Z
2022-06-05T09:01:26Z,42.805,6.029,13.3061,4.60069,2470.707,2022-6-05T11:03:09Z
2022-06-05T09:04:29Z,42.805,6.029,13.3061,4.60084,2470.693,2022-6-05T11:06:12Z
2022-06-05T09:07:32Z,42.805,6.029,13.3048,4.60079,2470.67,2022-6-05T11:09:15Z
2022-06-05T09:10:35Z,42.805,6.029,13.3043,4.60088,2470.693,2022-6-05T11:12:18Z
2022-06-05T09:13:39Z,42.805,6.029,13.3059,4.60053,2470.67,2022-6-05T11:15:21Z
2022-06-05T09:16:42Z,42.805,6.029,13.3068,4.60064,2470.707,2022-6-05T11:18:24Z
2022-06-05T09:19:45Z,42.805,6.029,13.3046,4.60100,2470.717,2022-6-05T11:21:27Z
2022-06-05T09:22:48Z,42.805,6.029,13.3043,4.60066,2470.693,2022-6-05T11:24:31Z
2022-06-05T09:25:51Z,42.805,6.029,13.3067,4.60073,2470.67,2022-6-05T11:27:34Z
2022-06-05T09:28:54Z,42.805,6.029,13.3051,4.60066,2470.707,2022-6-05T11:30:37Z
2022-06-05T09:31:57Z,42.805,6.029,13.3049,4.60059,2470.707,2022-6-05T11:33:40Z
2022-06-05T09:35:00Z,42.805,6.029,13.3050,4.60079,2470.707,2022-6-05T11:36:43Z
2022-06-05T09:38:04Z,42.805,6.029,13.3041,4.60084,2470.684,2022-6-05T11:39:46Z
2022-06-05T09:41:07Z,42.805,6.029,13.3040,4.60084,2470.707,2022-6-05T11:42:49Z
2022-06-05T09:44:10Z,42.805,6.029,13.3039,4.60061,2470.707,2022-6-05T11:45:52Z
2022-06-05T09:47:13Z,42.805,6.029,13.3039,4.60066,2470.693,2022-6-05T11:48:55Z
2022-06-05T09:50:16Z,42.805,6.029,13.3039,4.60077,2470.73,2022-6-05T11:51:59Z
2022-06-05T09:53:19Z,42.805,6.029,13.3055,4.60082,2470.67,2022-6-05T11:55:02Z
2022-06-05T09:56:22Z,42.805,6.029,13.3047,4.60091,2470.707,2022-6-05T11:58:05Z
2022-06-05T09:59:25Z,42.805,6.029,13.3039,4.60079,2470.67,2022-6-05T12:01:08Z
2022-06-05T10:02:28Z,42.805,6.029,13.3062,4.60060,2470.67,2022-6-05T12:04:11Z
2022-06-05T10:05:32Z,42.805,6.029,13.3052,4.60042,2470.693,2022-6-05T12:07:14Z
2022-06-05T10:08:35Z,42.805,6.029,13.3061,4.60083,2470.684,2022-6-05T12:10:17Z
2022-06-05T10:11:38Z,42.805,6.029,13.3060,4.60069,2470.707,2022-6-05T12:13:20Z
2022-06-05T10:14:41Z,42.805,6.029,13.3070,4.60068,2470.717,2022-6-05T12:16:24Z
2022-06-05T10:17:44Z,42.805,6.029,13.3088,4.60077,2470.693,2022-6-05T12:19:27Z
2022-06-05T10:20:47Z,42.805,6.029,13.3061,4.60072,2470.661,2022-6-05T12:22:30Z
2022-06-05T10:23:50Z,42.805,6.029,13.3061,4.60072,2470.693,2022-6-05T12:25:33Z
2022-06-05T10:26:53Z,42.805,6.029,13.3051,4.60068,2470.67,2022-6-05T12:28:36Z
2022-06-05T10:29:57Z,42.805,6.029,13.3048,4.60067,2470.73,2022-6-05T12:31:39Z
2022-06-05T10:33:00Z,42.805,6.029,13.3056,4.60076,2470.67,2022-6-05T12:34:42Z
2022-06-05T10:36:03Z,42.805,6.029,13.3066,4.60082,2470.684,2022-6-05T12:37:45Z
2022-06-05T10:39:06Z,42.805,6.029,13.3059,4.60067,2470.67,2022-6-05T12:40:48Z
2022-06-05T10:42:09Z,42.805,6.029,13.3062,4.60069,2470.73,2022-6-05T12:43:52Z
2022-06-05T10:45:12Z,42.805,6.029,13.3054,4.60074,2470.684,2022-6-05T12:46:55Z
2022-06-05T10:48:15Z,42.805,6.029,13.3054,4.60072,2470.73,2022-6-05T12:49:58Z
2022-06-05T10:51:18Z,42.805,6.029,13.3069,4.60064,2470.67,2022-6-05T12:53:01Z
2022-06-05T10:54:22Z,42.805,6.029,13.3055,4.60061,2470.684,2022-6-05T12:56:04Z
2022-06-05T10:57:25Z,42.805,6.029,13.3052,4.60062,2470.707,2022-6-05T12:59:07Z
2022-06-05T11:00:28Z,42.805,6.029,13.3051,4.60057,2470.67,2022-6-05T13:02:10Z
2022-06-05T11:03:31Z,42.805,6.029,13.3050,4.60073,2470.67,2022-6-05T13:05:13Z
2022-06-05T11:06:34Z,42.805,6.029,13.3052,4.60073,2470.661,2022-6-05T13:08:17Z
2022-06-05T11:09:37Z,42.805,6.029,13.3056,4.60079,2470.67,2022-6-05T13:11:20Z
2022-06-05T11:12:40Z,42.805,6.029,13.3060,4.60079,2470.693,2022-6-05T13:14:23Z
2022-06-05T11:15:43Z,42.805,6.029,13.3048,4.60061,2470.684,2022-6-05T13:17:26Z
2022-06-05T11:18:46Z,42.805,6.029,13.3051,4.60060,2470.684,2022-6-05T13:20:29Z
2022-06-05T11:21:50Z,42.805,6.029,13.3048,4.60072,2470.67,2022-6-05T13:23:32Z
2022-06-05T11:24:53Z,42.805,6.029,13.3070,4.60063,2470.67,2022-6-05T13:26:35Z
2022-06-05T11:27:56Z,42.805,6.029,13.3044,4.60053,2470.67,2022-6-05T13:29:38Z
2022-06-05T11:30:59Z,42.805,6.029,13.3047,4.60062,2470.637,2022-6-05T13:32:42Z
2022-06-05T11:34:02Z,42.805,6.029,13.3041,4.60062,2470.661,2022-6-05T13:35:45Z
2022-06-05T11:37:05Z,42.805,6.029,13.3049,4.60069,2470.684,2022-6-05T13:38:48Z
2022-06-05T11:40:08Z,42.805,6.029,13.3046,4.60062,2470.684,2022-6-05T13:41:51Z
2022-06-05T11:43:11Z,42.805,6.029,13.3048,4.60066,2470.67,2022-6-05T13:44:54Z
2022-06-05T11:46:15Z,42.805,6.029,13.3042,4.60059,2470.67,2022-6-05T13:47:57Z
2022-06-05T11:49:18Z,42.805,6.029,13.3049,4.60060,2470.707,2022-6-05T13:51:00Z
2022-06-05T11:52:21Z,42.805,6.029,13.3042,4.60074,2470.684,2022-6-05T13:54:03Z
2022-06-05T11:55:24Z,42.805,6.029,13.3041,4.60079,2470.67,2022-6-05T13:57:07Z
2022-06-05T11:58:27Z,42.805,6.029,13.3048,4.60069,2470.624,2022-6-05T14:00:10Z
2022-06-05T12:01:30Z,42.805,6.029,13.3042,4.60081,2470.693,2022-6-05T14:03:13Z
2022-06-05T12:04:33Z,42.805,6.029,13.3048,4.60072,2470.684,2022-6-05T14:06:16Z
2022-06-05T12:07:36Z,42.805,6.029,13.3063,4.60069,2470.661,2022-6-05T14:09:19Z
2022-06-05T12:10:40Z,42.805,6.029,13.3085,4.60102,2470.67,2022-6-05T14:12:22Z
2022-06-05T12:13:43Z,42.805,6.029,13.3060,4.60107,2470.646,2022-6-05T14:15:25Z
2022-06-05T12:16:46Z,42.805,6.029,13.3047,4.60074,2470.684,2022-6-05T14:18:28Z
2022-06-05T12:19:49Z,42.805,6.029,13.3078,4.60077,2470.684,2022-6-05T14:21:31Z
2022-06-05T12:22:52Z,42.805,6.029,13.3054,4.60089,2470.661,2022-6-05T14:24:35Z
2022-06-05T12:25:55Z,42.805,6.029,13.3036,4.60093,2470.646,2022-6-05T14:27:38Z
2022-06-05T12:28:58Z,42.805,6.029,13.3012,4.60068,2470.633,2022-6-05T14:30:41Z
2022-06-05T12:32:01Z,42.805,6.029,13.3057,4.60069,2470.661,2022-6-05T14:33:44Z
2022-06-05T12:35:05Z,42.805,6.029,13.3010,4.60066,2470.661,2022-6-05T14:36:47Z
2022-06-05T12:38:08Z,42.805,6.029,13.3015,4.60068,2470.661,2022-6-05T14:39:50Z
2022-06-05T12:41:11Z,42.805,6.029,13.3008,4.60077,2470.661,2022-6-05T14:42:53Z
2022-06-05T12:44:14Z,42.805,6.029,13.3003,4.60062,2470.646,2022-6-05T14:45:56Z
2022-06-05T12:47:17Z,42.805,6.029,13.3005,4.60060,2470.661,2022-6-05T14:49:00Z
2022-06-05T12:50:20Z,42.805,6.029,13.3004,4.60053,2470.624,2022-6-05T14:52:03Z
2022-06-05T12:53:23Z,42.805,6.029,13.3004,4.60057,2470.684,2022-6-05T14:55:06Z
2022-06-05T12:56:26Z,42.805,6.029,13.3000,4.60049,2470.661,2022-6-05T14:58:09Z
2022-06-05T12:59:29Z,42.805,6.029,13.3004,4.60050,2470.586,2022-6-05T15:01:12Z
2022-06-05T13:02:33Z,42.805,6.029,13.3000,4.60051,2470.67,2022-6-05T15:04:15Z
2022-06-05T13:05:36Z,42.805,6.029,13.3002,4.60052,2470.646,2022-6-05T15:07:18Z
2022-06-05T13:08:39Z,42.805,6.029,13.3001,4.60044,2470.646,2022-6-05T15:10:21Z
2022-06-05T13:11:42Z,42.805,6.029,13.3004,4.60046,2470.624,2022-6-05T15:13:25Z
2022-06-05T13:14:45Z,42.805,6.029,13.2999,4.60049,2470.624,2022-6-05T15:16:28Z
2022-06-05T13:17:48Z,42.805,6.029,13.3005,4.60046,2470.624,2022-6-05T15:19:31Z
2022-06-05T13:20:51Z,42.805,6.029,13.3002,4.60045,2470.661,2022-6-05T15:22:34Z
2022-06-05T13:23:54Z,42.805,6.029,13.3001,4.60050,2470.661,2022-6-05T15:25:37Z
2022-06-05T13:26:58Z,42.805,6.029,13.3001,4.60049,2470.624,2022-6-05T15:28:40Z
2022-06-05T13:30:01Z,42.805,6.029,13.3007,4.60047,2470.661,2022-6-05T15:31:43Z
2022-06-05T13:33:04Z,42.805,6.029,13.3002,4.60046,2470.637,2022-6-05T15:34:46Z
2022-06-05T13:36:07Z,42.805,6.029,13.3006,4.60041,2470.624,2022-6-05T15:37:50Z
2022-06-05T13:39:10Z,42.805,6.029,13.3006,4.60044,2470.646,2022-6-05T15:40:53Z
2022-06-05T13:42:13Z,42.805,6.029,13.3002,4.60039,2470.646,2022-6-05T15:43:56Z
2022-06-05T13:45:16Z,42.805,6.029,13.3004,4.60045,2470.637,2022-6-05T15:46:59Z
2022-06-05T13:48:19Z,42.805,6.029,13.3004,4.60044,2470.624,2022-6-05T15:50:02Z
2022-06-05T13:51:23Z,42.805,6.029,13.3002,4.60044,2470.614,2022-6-05T15:53:05Z
2022-06-05T13:54:26Z,42.805,6.029,13.3000,4.60044,2470.624,2022-6-05T15:56:08Z
2022-06-05T13:57:29Z,42.805,6.029,13.3005,4.60042,2470.624,2022-6-05T15:59:11Z
2022-06-05T14:00:32Z,42.805,6.029,13.3000,4.60044,2470.637,2022-6-05T16:02:15Z
2022-06-05T14:03:35Z,42.805,6.029,13.3000,4.60043,2470.684,2022-6-05T16:05:18Z
2022-06-05T14:06:38Z,42.805,6.029,13.3004,4.60044,2470.624,2022-6-05T16:08:21Z
2022-06-05T14:09:41Z,42.805,6.029,13.3006,4.60043,2470.624,2022-6-05T16:11:24Z
2022-06-05T14:12:44Z,42.805,6.029,13.2998,4.60047,2470.624,2022-6-05T16:14:27Z
2022-06-05T14:15:48Z,42.805,6.029,13.3006,4.60043,2470.624,2022-6-05T16:17:30Z
2022-06-05T14:18:51Z,42.805,6.029,13.3003,4.60044,2470.6,2022-6-05T16:20:33Z
2022-06-05T14:21:54Z,42.805,6.029,13.3003,4.60046,2470.624,2022-6-05T16:23:36Z
2022-06-05T14:24:57Z,42.805,6.029,13.3002,4.60044,2470.646,2022-6-05T16:26:39Z
2022-06-05T14:28:00Z,42.805,6.029,13.3006,4.60046,2470.646,2022-6-05T16:29:43Z
2022-06-05T14:31:03Z,42.805,6.029,13.3001,4.60043,2470.6,2022-6-05T16:32:46Z
2022-06-05T14:34:06Z,42.805,6.029,13.3005,4.60042,2470.614,2022-6-05T16:35:49Z
2022-06-05T14:37:09Z,42.805,6.029,13.3004,4.60042,2470.6,2022-6-05T16:38:52Z
2022-06-05T14:40:13Z,42.805,6.029,13.3004,4.60040,2470.637,2022-6-05T16:41:55Z
2022-06-05T14:43:16Z,42.805,6.029,13.3006,4.60038,2470.6,2022-6-05T16:44:58Z
2022-06-05T14:46:19Z,42.805,6.029,13.3002,4.60036,2470.614,2022-6-05T16:48:01Z
2022-06-05T14:49:22Z,42.805,6.029,13.3001,4.60038,2470.614,2022-6-05T16:51:04Z
2022-06-05T14:52:25Z,42.805,6.029,13.3004,4.60040,2470.6,2022-6-05T16:54:08Z
2022-06-05T14:55:28Z,42.805,6.029,13.3000,4.60039,2470.577,2022-6-05T16:57:11Z
2022-06-05T14:58:31Z,42.805,6.029,13.3004,4.60040,2470.6,2022-6-05T17:00:14Z
2022-06-05T15:01:34Z,42.805,6.029,13.3005,4.60039,2470.614,2022-6-05T17:03:17Z
2022-06-05T15:04:37Z,42.805,6.029,13.3002,4.60036,2470.614,2022-6-05T17:06:20Z
2022-06-05T15:07:41Z,42.805,6.029,13.3004,4.60038,2470.577,2022-6-05T17:09:23Z
2022-06-05T15:10:44Z,42.805,6.029,13.3001,4.60041,2470.6,2022-6-05T17:12:26Z